Regional Weather Roundup
Issued by NWS

Home | Current Version | Previous Version | Text Only | Print | Product List | Glossary On
Versions: 1 2 3 4 5 6 7 8 9 10 11 12 13 14 15 16 17 18 19 20 21 22 23 24 25 26 27 28 29 30 31 32 33 34 35 36 37 38 39 40 41 42 43 44 45 46 47 48 49 50
741
ASUS44 KJAN 280203
RWRMS

MISSISSIPPI HOURLY WEATHER ROUNDUP
NATIONAL WEATHER SERVICE JACKSON MS
800 PM CST TUE JAN 27 2015

NOTE: "FAIR: INDICATES FEW OR NO CLOUDS BELOW 12,000 FEET WITH NO
SIGNIFICANT WEATHER AND/OR OBSTRUCTIONS TO VISIBILITY.

MSZ001>002-007>008-010>013-018>021-025>028-034>036-280300-
NORTHWEST MISSISSIPPI

CITY           SKY/WX    TMP DP  RH WIND       PRES   REMARKS
CLARKSDALE     FAIR      46  39  76 N7        30.20S
CLEVELAND      FAIR      45  41  85 NE6       30.19R
GREENWOOD      CLEAR     45  37  73 CALM      30.18R
GREENVILLE     CLEAR     47  40  76 NE6       30.17R
GRENADA        FAIR      45  36  70 N3        30.19R
OLIVE BRANCH   CLEAR     41  36  81 NE3       30.21R
OXFORD         FAIR      45  32  61 N6        30.20R
TUNICA         CLEAR     41  36  81 NE8       30.20S
$$

MSZ003>006-009-014>017-022>024-029>033-037>039-280300-
NORTHEAST MISSISSIPPI

CITY           SKY/WX    TMP DP  RH WIND       PRES   REMARKS
COLUMBUS AFB   CLEAR     43  33  69 NW3       30.17R
CORINTH        FAIR      43  32  65 N5        30.19R
GOLDN TRIANGLE CLEAR     46  34  61 N6        30.15
STARKVILLE     FAIR      43  36  75 CALM      30.17R
TUPELO         CLEAR     46  32  58 N8        30.19R
$$

MSZ040-058-280300-
CENTRAL MISSISSIPPI

CITY           SKY/WX    TMP DP  RH WIND       PRES   REMARKS
JACKSON INTL   CLEAR     49  37  63 N6        30.16R
JACKSON HAWKNS CLEAR     52  37  56 NW5       30.17R
MERIDIAN KEY   CLEAR     45  36  70 N3        30.14R
MERIDIAN NAS   CLEAR     48  35  60 NW5       30.15R
RAYMOND        FAIR      46  41  81 MISG      30.17R
VICKSBURG      CLEAR     47  39  74 N5        30.16S
$$

MSZ059>079-280300-
SOUTH MISSISSIPPI

CITY           SKY/WX    TMP DP  RH WIND       PRES   REMARKS
BROOKHAVEN     FAIR      55  36  47 CALM      30.16R
HATTIESBURG    CLEAR     48  37  65 CALM      30.14R
MCCOMB         CLEAR     54  34  46 N6        30.14R
NATCHEZ        CLEAR     52  36  54 NE3       30.16S
PINE BELT      CLEAR     54  30  40 NW7       30.14R
$$

MSZ080>082-280300-
COASTAL MISSISSIPPI

CITY           SKY/WX    TMP DP  RH WIND       PRES   REMARKS
BAY ST LOUIS   CLEAR     46  39  76 CALM      30.12R
BILOXI         CLEAR     56  40  53 CALM      30.10R
PASCAGOULA     CLEAR     45  42  89 CALM      30.11R
GULFPORT       CLEAR     51  40  65 NW3       30.10R
$$



USA.gov is the U.S. government's official web portal to all federal, state and local government web resources and services.